Вернуться в каталог

RUBIN 4/SL-8

АктивенЛюбительское радиоSSO
NORAD 27940·PAYLOAD·🇩🇪 Germany

Запущен Sep 27, 2003 с Plesetsk Cosmodrome

Loading…

Ближайшие Пролёты (ближайшие 24 часа)

TLE

СвежийSource: Space-Track

Эпоха: Sep 14, 2026, 10:40 UTC

1 27940U 03042B   26257.44511949  .00000280  00000-0  55949-4 0  9996
2 27940  98.3921  77.8447 0014236  77.1923 283.0871 14.69562563227678

Отслеживайте RUBIN 4/SL-8 в реальном времени с AllMySat

Download on the App Store